ZL2IH Weather Reports


time (UTC)temp
C
wind
direction
speed
KPH
gust
KPH
rain 1hr
cm
rain 24hr
cm
rain mn
cm
humidity
%
barometer
mb
20260509034018 13 0.0 3.2 0.05 3.53 1.17 100 1003.0
20260509033017 13 0.0 3.2 0.05 3.53 1.17 100 1003.0
20260509032017 13 0.0 3.2 0.05 3.53 1.17 100 1002.8
20260509031018 12 0.0 1.6 0.05 3.53 1.17 100 1002.9
20260509030017 12 0.0 1.6 0.03 3.51 1.14 100 1002.8
20260509025017 12 0.0 3.2 0.03 3.51 1.14 100 1003.2
20260509024018 12 0.0 3.2 0.03 3.48 1.12 100 1003.3
20260509023017 12 203 1.6 6.4 0.05 3.48 1.12 100 1003.2
20260509022017 13 180 1.6 6.4 0.05 3.48 1.12 100 1003.2
20260509021017 13 248 1.6 4.8 0.05 3.48 1.12 100 1003.3
20260509020017 13 203 1.6 8.0 0.10 3.48 1.12 100 1003.1
20260509015017 13 0.0 6.4 0.10 3.48 1.12 100 1003.1
20260509014017 12 248 1.6 6.4 0.08 3.48 1.09 100 1003.3
20260509013017 13 0.0 6.4 0.05 3.43 1.07 100 1003.3
20260509012037 12 203 1.6 8.0 0.05 3.43 1.07 100 1003.4
20260509011017 12 180 1.6 8.0 0.05 3.43 1.07 100 1003.3
20260509010017 13 203 3.2 6.4 0.00 3.40 1.02 100 1003.3
20260509005017 13 203 1.6 8.0 0.00 3.40 1.02 100 1003.2
20260509004017 13 203 1.6 8.0 0.00 3.40 1.02 100 1003.4
20260509003018 13 180 1.6 8.0 0.00 3.40 1.02 100 1003.4
20260509002037 13 180 1.6 8.0 0.00 3.40 1.02 100 1003.6
20260509001017 13 203 1.6 6.4 0.00 3.40 1.02 100 1003.8
20260509000017 13 158 1.6 8.0 0.03 3.40 1.02 100 1004.1
20260508235017 12 180 1.6 12.9 0.03 3.40 1.02 100 1004.1
20260508234037 12 0 1.6 4.8 0.03 3.40 1.02 100 1004.1
20260508233017 13 180 3.2 9.7 0.03 3.40 1.02 100 1004.1
20260508232017 13 180 3.2 12.9 0.03 3.40 1.02 100 1004.1
20260508231017 13 180 3.2 11.3 0.03 3.40 1.02 100 1004.1
20260508230058 15 203 3.2 14.5 0.00 3.38 0.99 100 1003.8
20260508225017 15 203 3.2 9.7 0.00 3.38 0.99 100 1003.8
20260508224016 14 180 3.2 17.7 0.00 3.38 0.99 100 1003.5
20260508223057 14 203 3.2 12.9 0.00 3.38 0.99 100 1003.8
20260508222018 13 180 3.2 16.1 0.00 3.38 0.99 100 1003.9
20260508221036 13 248 3.2 9.7 0.00 3.38 0.99 100 1004.0
20260508215017 13 293 3.2 12.9 0.00 3.38 0.99 100 1004.1
20260508214017 13 180 3.2 8.0 0.00 3.38 0.99 100 1004.2
20260508213016 13 315 3.2 14.5 0.00 3.38 0.99 100 1004.1
20260508212017 13 270 3.2 14.5 0.00 3.38 0.99 100 1004.1
20260508211016 13 338 3.2 12.9 0.00 3.38 0.99 100 1004.1
20260508210017 13 338 3.2 9.7 0.00 3.38 0.99 100 1003.9
20260508205017 13 338 1.6 9.7 0.00 3.38 0.99 100 1003.9
20260508204036 12 315 1.6 9.7 0.00 3.38 0.99 100 1003.8
20260508203017 12 315 1.6 8.0 0.03 3.38 0.99 100 1003.8
20260508202019 12 338 1.6 9.7 0.03 3.38 0.99 100 1003.7
20260508201020 11 315 1.6 8.0 0.23 3.38 0.99 100 1003.7
20260508200018 11 338 1.6 8.0 0.33 3.38 0.99 100 1003.7
20260508195019 12 338 1.6 8.0 0.33 3.38 0.99 100 1003.6
20260508194018 12 315 1.6 6.4 0.71 3.38 0.99 100 1003.6
20260508193018 12 315 1.6 6.4 0.99 3.35 0.99 100 1003.6
20260508192019 12 158 3.2 12.9 0.99 3.35 0.99 100 1003.6
20260508191019 12 315 3.2 9.7 0.79 3.15 0.79 100 1003.7
20260508190017 12 338 1.6 9.7 0.66 3.05 0.66 100 1003.4
20260508185019 12 180 3.2 14.5 0.66 3.05 0.66 100 1003.4
20260508184018 12 158 3.2 14.5 0.30 2.69 0.30 100 1003.3
20260508183018 13 180 1.6 11.3 0.00 2.39 0.00 100 1003.6
20260508182038 13 338 1.6 11.3 0.00 2.39 0.00 100 1003.5
20260508181018 13 315 3.2 16.1 0.00 2.39 0.00 100 1003.4
20260508180018 13 315 3.2 9.7 0.00 2.39 0.00 100 1003.5
20260508175018 13 315 3.2 16.1 0.00 2.39 0.00 100 1003.5
20260508174018 13 338 3.2 14.5 0.00 2.39 0.00 100 1003.3
20260508173118 13 338 4.8 19.3 0.00 2.39 0.00 100 1003.5
20260508172058 13 338 3.2 11.3 0.00 2.39 0.00 100 1003.4
20260508171018 13 338 3.2 12.9 0.00 2.39 0.00 100 1003.5
20260508170018 13 315 3.2 16.1 0.00 2.39 0.00 100 1003.6
20260508165058 13 338 3.2 16.1 0.00 2.39 0.00 100 1003.5
20260508164038 13 338 3.2 11.3 0.00 2.39 0.00 100 1003.6
20260508163038 13 338 1.6 12.9 0.00 2.39 0.00 100 1003.6
20260508162019 13 315 1.6 6.4 0.00 2.39 0.00 100 1003.6
20260508161019 13 315 1.6 6.4 0.00 2.39 0.00 100 1003.8
20260508160038 13 315 1.6 9.7 0.00 2.39 0.00 100 1003.8
20260508155019 12 338 1.6 8.0 0.00 2.39 0.00 100 1003.9
20260508154038 12 315 1.6 8.0 0.00 2.39 0.00 100 1004.0
20260508153018 12 315 1.6 4.8 0.00 2.39 0.00 100 1004.1
20260508152018 12 315 1.6 4.8 0.00 2.39 0.00 100 1004.2
20260508151018 12 315 1.6 8.0 0.00 2.39 0.00 100 1004.2
20260508150018 13 338 3.2 14.5 0.00 2.39 0.00 100 1004.3
20260508145018 13 338 3.2 12.9 0.00 2.39 0.00 100 1004.3
20260508144038 13 338 3.2 12.9 0.00 2.39 0.00 100 1004.3
20260508143018 13 338 3.2 14.5 0.00 2.39 0.00 100 1004.3
20260508142018 13 338 3.2 12.9 0.00 2.39 0.00 100 1004.2
20260508141017 13 338 3.2 12.9 0.00 2.39 0.00 100 1004.4
20260508140019 13 338 3.2 14.5 0.00 2.39 0.00 100 1004.4
20260508135018 13 338 3.2 9.7 0.00 2.39 0.00 100 1004.3
20260508134017 13 338 3.2 14.5 0.00 2.39 0.00 100 1004.6
20260508133018 13 338 3.2 17.7 0.00 2.39 0.00 100 1004.7
20260508132018 13 315 3.2 14.5 0.00 2.39 0.00 100 1004.6
20260508130018 13 315 3.2 11.3 0.00 2.41 0.00 100 1004.8
20260508125018 13 315 3.2 9.7 0.00 2.41 0.00 100 1004.9
20260508124018 13 338 3.2 11.3 0.00 2.41 0.00 100 1004.8
20260508123018 13 338 4.8 16.1 0.00 2.41 0.00 100 1004.9
20260508122017 13 315 4.8 17.7 0.00 2.41 0.00 100 1004.9
20260508121019 13 338 4.8 16.1 0.00 2.41 0.00 100 1005.1
20260508120058 13 338 3.2 11.3 0.00 2.44 2.44 100 1005.0
20260508115018 13 338 3.2 11.3 0.00 2.44 2.44 100 1005.0
20260508114018 13 315 1.6 11.3 0.00 2.44 2.44 100 1005.1
20260508113018 13 338 3.2 11.3 0.00 2.44 2.44 100 1005.1
20260508112017 13 315 1.6 8.0 0.00 2.44 2.44 100 1005.0
20260508111017 13 315 3.2 12.9 0.00 2.44 2.44 100 1005.0
20260508110038 13 338 1.6 8.0 0.00 2.44 2.44 100 1004.9
20260508105138 13 315 3.2 14.5 0.03 2.44 2.44 100 1005.0
20260508104017 13 315 1.6 6.4 0.20 2.44 2.44 100 1004.9
20260508103018 12 315 1.6 9.7 0.48 2.44 2.44 100 1005.2
20260508102018 12 338 3.2 17.7 0.66 2.44 2.44 100 1005.5
20260508101017 12 315 1.6 8.0 0.74 2.44 2.44 100 1005.5
20260508100017 12 315 3.2 14.5 0.76 2.44 2.44 100 1005.4
20260508095017 13 315 6.4 19.3 0.76 2.41 2.41 100 1005.7
20260508094118 14 338 6.4 24.1 0.58 2.24 2.24 100 1005.3
20260508093038 14 338 6.4 16.1 0.33 1.96 1.96 100 1004.8
20260508092017 15 338 8.0 19.3 0.33 1.78 1.78 100 1005.3
20260508091017 15 338 9.7 27.4 0.46 1.70 1.70 100 1005.4
20260508090018 14 315 9.7 29.0 0.58 1.68 1.68 100 1005.5
20260508085017 14 338 8.0 20.9 0.66 1.65 1.65 100 1005.3
20260508084017 15 338 8.0 27.4 0.84 1.65 1.65 100 1005.1
20260508083018 14 338 8.0 25.7 0.94 1.65 1.65 100 1004.9
20260508082018 14 338 6.4 20.9 0.74 1.45 1.45 100 1005.1
20260508081017 14 338 6.4 22.5 0.58 1.24 1.24 100 1005.2
20260508080018 14 45 4.8 17.7 0.58 1.09 1.09 100 1005.4
20260508075017 14 113 4.8 14.5 0.66 0.99 0.99 100 1005.4
20260508074017 15 90 6.4 24.1 0.61 0.81 0.81 100 1006.2
20260508073018 14 113 4.8 12.9 0.53 0.71 0.71 100 1006.0
20260508072017 14 90 4.8 17.7 0.58 0.71 0.71 100 1006.1
20260508071017 14 45 4.8 14.5 0.53 0.66 0.66 100 1006.4
20260508070017 14 338 4.8 16.1 0.43 0.51 0.51 100 1007.0
20260508065017 14 315 4.8 16.1 0.23 0.33 0.33 100 1006.7
20260508064018 14 315 6.4 16.1 0.13 0.23 0.23 100 1006.6
20260508063017 14 68 6.4 16.1 0.05 0.15 0.15 100 1006.4
20260508062017 14 90 6.4 20.9 0.03 0.13 0.13 100 1006.7
20260508061017 14 113 4.8 14.5 0.03 0.13 0.13 100 1006.7
20260508060057 14 113 6.4 16.1 0.00 0.10 0.10 100 1006.9
20260508054017 14 90 4.8 19.3 0.03 0.10 0.10 100 1006.9
20260508053017 14 113 6.4 17.7 0.03 0.10 0.10 100 1007.3
20260508052017 14 90 6.4 14.5 0.03 0.10 0.10 100 1007.3
20260508051017 14 90 4.8 14.5 0.03 0.10 0.10 100 1007.2
20260508050017 15 90 6.4 17.7 0.03 0.10 0.10 100 1007.5
20260508045058 15 90 4.8 16.1 0.00 0.08 0.08 100 1007.5
20260508044057 15 113 6.4 19.3 0.00 0.08 0.08 100 1007.7
20260508043017 15 90 6.4 17.7 0.00 0.08 0.08 100 1007.6
20260508042017 15 0 4.8 14.5 0.00 0.08 0.08 100 1008.1
20260508041017 15 113 6.4 16.1 0.00 0.08 0.08 100 1008.1
20260508040137 15 113 6.4 14.5 0.00 0.08 0.08 100 1008.2
20260508035037 15 113 4.8 16.1 0.00 0.08 0.08 100 1008.3